QPF
0.00 0.00 0.00 0.00 0.00 0.00 0.00 0.00 0.00 0.00 0.00 0.00 0.00 0.00 0.00 0.01 0.02 0.00 0.00 0.00 0.00 0.00 0.00 0.00 0.00 0.00 0.00 0.00 0.00 0.00 0.00 0.00 0.00 0.00 0.00 0.00 0.00 0.00 0.00 0.00 0.00 0.00 0.00 0.00 0.00 0.00 0.00 0.00 0.00 0.00 0.00 0.00 0.00 0.00
0.00 0.00 0.00 0.00 0.00 0.00 0.00 0.00 0.00 0.00 0.00 0.00 0.00 0.01 0.01 0.00 0.01 0.01 0.00 0.00 0.01 0.01 0.00 0.00 0.00 0.00 0.00 0.00 0.00 0.00 0.00 0.00 0.00 0.00 0.00 0.00 0.00 0.00 0.00 0.00 0.00 0.00 0.00 0.00 0.00 0.00 0.00 0.00 0.00 0.00 0.00 0.00 0.00 0.00
0.00 0.00 0.00 0.00 0.01 0.01 0.01 0.01 0.00 0.01 0.01 0.01 0.01 0.02 0.03 0.02 0.02 0.02 0.00 0.00 0.01 0.01 0.00 0.00 0.00 0.00 0.00 0.00 0.00 0.00 0.00 0.00 0.00 0.00 0.00 0.00 0.00 0.00 0.00 0.00 0.00 0.00 0.00 0.00 0.00 0.00 0.00 0.00 0.00 0.00 0.00 0.00 0.00 0.00
0.00 0.00 0.00 0.00 0.00 0.01 0.01 0.01 0.00 0.00 0.00 0.00 0.00 0.00 0.00 0.03 0.05 0.06 0.01 0.00 0.00 0.00 0.00 0.00 0.00 0.00 0.00 0.00 0.00 0.00 0.00 0.00 0.00 0.00 0.00 0.00 0.00 0.00 0.00 0.00 0.00 0.00 0.00 0.00 0.00 0.00 0.00 0.00 0.00 0.00 0.00 0.00 0.00 0.00
0.00 0.00 0.00 0.00 0.00 0.00 0.00 0.00 0.00 0.00 0.00 0.00 0.01 0.00 0.01 0.02 0.04 0.02 0.00 0.00 0.00 0.00 0.00 0.00 0.00 0.00 0.00 0.00 0.00 0.00 0.00 0.00 0.00 0.00 0.01 0.00 0.00 0.00 0.00 0.00 0.00 0.00 0.00 0.00 0.00 0.00 0.00 0.00 0.00 0.00 0.00 0.00 0.00 0.00
0.00 0.00 0.01 0.00 0.01 0.00 0.00 0.00 0.00 0.00 0.00 0.01 0.01 0.00 0.01 0.02 0.06 0.00 0.00 0.00 0.00 0.00 0.03 0.00 0.00 0.00 0.00 0.00 0.00 0.00 0.00 0.00 0.00 0.00 0.00 0.00 0.00 0.00 0.00 0.00 0.00 0.00 0.00 0.00 0.00 0.00 0.00 0.00 0.00 0.00 0.00 0.00 0.00 0.00
0.00 0.00 0.01 0.00 0.00 0.00 0.00 0.00 0.00 0.00 0.00 0.00 0.00 0.01 0.01 0.04 0.05 0.01 0.00 0.00 0.00 0.00 0.01 0.00 0.00 0.00 0.00 0.00 0.00 0.00 0.00 0.00 0.00 0.00 0.00 0.00 0.00 0.01 0.00 0.00 0.00 0.00 0.00 0.00 0.00 0.00 0.00 0.00 0.00 0.00 0.00 0.00 0.00 0.00
0.01 0.01 0.02 0.01 0.00 0.00 0.00 0.00 0.00 0.02 0.01 0.01 0.00 0.01 0.02 0.04 0.04 0.01 0.01 0.04 0.02 0.01 0.01 0.00 0.00 0.00 0.00 0.00 0.00 0.00 0.00 0.00 0.00 0.00 0.00 0.00 0.00 0.00 0.00 0.00 0.00 0.00 0.00 0.00 0.00 0.00 0.00 0.00 0.00 0.00 0.00 0.00 0.00 0.00
0.00 0.00 0.00 0.00 0.00 0.00 0.00 0.01 0.04 0.04 0.05 0.07 0.04 0.03 0.02 0.00 0.00 0.00 0.00 0.02 0.06 0.02 0.00 0.00 0.00 0.00 0.00 0.00 0.00 0.01 0.02 0.02 0.01 0.00 0.00 0.00 0.00 0.00 0.00 0.00 0.00 0.00 0.00 0.00 0.00 0.00 0.00 0.00 0.00 0.00 0.00 0.00 0.00 0.00
0.00 0.00 0.00 0.01 0.00 0.00 0.01 0.04 0.03 0.02 0.01 0.02 0.00 0.00 0.00 0.00 0.00 0.00 0.00 0.00 0.00 0.01 0.01 0.00 0.00 0.00 0.00 0.00 0.00 0.00 0.00 0.00 0.01 0.00 0.00 0.00 0.00 0.00 0.00 0.00 0.00 0.00 0.00 0.00 0.00 0.00 0.00 0.00 0.00 0.00 0.00 0.00 0.00 0.00
0.00 0.00 0.00 0.00 0.00 0.00 0.00 0.01 0.01 0.01 0.00 0.00 0.00 0.00 0.00 0.00 0.00 0.00 0.00 0.00 0.00 0.00 0.00 0.00 0.00 0.00 0.00 0.00 0.00 0.00 0.00 0.00 0.01 0.00 0.00 0.00 0.00 0.00 0.00 0.00 0.00 0.00 0.00 0.00 0.00 0.00 0.00 0.00 0.00 0.00 0.00 0.00 0.00 0.00
0.00 0.00 0.00 0.00 0.00 0.00 0.01 0.01 0.01 0.01 0.00 0.00 0.00 0.00 0.00 0.00 0.00 0.00 0.00 0.00 0.00 0.00 0.01 0.01 0.01 0.00 0.00 0.00 0.00 0.00 0.01 0.01 0.00 0.00 0.00 0.00 0.00 0.00 0.00 0.00 0.00 0.00 0.00 0.00 0.00 0.00 0.00 0.00 0.00 0.00 0.00 0.00 0.00 0.00
0.00 0.00 0.00 0.00 0.00 0.01 0.02 0.02 0.00 0.01 0.01 0.01 0.01 0.00 0.00 0.00 0.00 0.00 0.00 0.00 0.00 0.00 0.00 0.00 0.00 0.00 0.00 0.00 0.00 0.01 0.01 0.00 0.00 0.00 0.00 0.00 0.00 0.00 0.00 0.00 0.00 0.00 0.00 0.00 0.00 0.00 0.00 0.00 0.00 0.00 0.00 0.00 0.00 0.00
0.00 0.00 0.00 0.01 0.02 0.02 0.02 0.04 0.02 0.02 0.00 0.01 0.00 0.00 0.00 0.00 0.00 0.00 0.00 0.00 0.00 0.00 0.00 0.00 0.00 0.00 0.01 0.01 0.00 0.00 0.00 0.00 0.00 0.00 0.00 0.00 0.00 0.00 0.00 0.00 0.00 0.00 0.00 0.00 0.00 0.00 0.00 0.00 0.00 0.00 0.00 0.00 0.00 0.00
0.00 0.00 0.00 0.00 0.00 0.01 0.04 0.05 0.03 0.01 0.01 0.01 0.00 0.00 0.00 0.00 0.00 0.00 0.00 0.00 0.00 0.00 0.00 0.00 0.00 0.00 0.00 0.01 0.00 0.00 0.00 0.00 0.00 0.00 0.00 0.00 0.00 0.00 0.00 0.00 0.00 0.00 0.00 0.00 0.00 0.00 0.00 0.00 0.00 0.00 0.00 0.00 0.00 0.00
0.01 0.00 0.00 0.00 0.00 0.01 0.03 0.03 0.00 0.00 0.01 0.00 0.00 0.00 0.00 0.00 0.00 0.00 0.00 0.00 0.00 0.00 0.00 0.00 0.00 0.00 0.00 0.00 0.00 0.00 0.00 0.00 0.00 0.00 0.00 0.00 0.00 0.00 0.00 0.00 0.00 0.00 0.00 0.00 0.00 0.00 0.00 0.00 0.00 0.00 0.00 0.00 0.00 0.00
0.01 0.00 0.00 0.00 0.00 0.02 0.02 0.00 0.00 0.00 0.00 0.00 0.00 0.00 0.00 0.00 0.00 0.00 0.00 0.00 0.00 0.00 0.00 0.00 0.00 0.00 0.00 0.00 0.00 0.00 0.00 0.00 0.00 0.00 0.00 0.00 0.00 0.00 0.00 0.00 0.00 0.00 0.00 0.00 0.00 0.00 0.00 0.00 0.00 0.00 0.00 0.00 0.00 0.00
0.00 0.00 0.00 0.01 0.01 0.00 0.00 0.00 0.00 0.00 0.00 0.00 0.00 0.00 0.00 0.00 0.00 0.00 0.00 0.00 0.00 0.00 0.00 0.00 0.00 0.00 0.00 0.00 0.00 0.00 0.00 0.00 0.00 0.00 0.00 0.00 0.00 0.00 0.00 0.00 0.00 0.00 0.00 0.00 0.00 0.00 0.00 0.00 0.00 0.00 0.00 0.00 0.00 0.00
0.00 0.01 0.00 0.02 0.00 0.00 0.00 0.00 0.00 0.00 0.00 0.00 0.00 0.00 0.00 0.00 0.00 0.00 0.00 0.00 0.00 0.00 0.00 0.00 0.00 0.00 0.00 0.00 0.00 0.00 0.00 0.00 0.00 0.00 0.00 0.00 0.00 0.00 0.00 0.00 0.00 0.00 0.00 0.00 0.00 0.00 0.00 0.00 0.00 0.00 0.00 0.00 0.00 0.00
0.03 0.02 0.02 0.02 0.00 0.00 0.00 0.00 0.00 0.00 0.00 0.00 0.00 0.00 0.00 0.00 0.00 0.00 0.00 0.00 0.00 0.00 0.00 0.00 0.00 0.00 0.00 0.00 0.00 0.00 0.00 0.00 0.00 0.00 0.00 0.00 0.00 0.00 0.00 0.00 0.00 0.00 0.00 0.00 0.00 0.00 0.00 0.00 0.00 0.00 0.00 0.00 0.00 0.00
0.00 0.00 0.00 0.00 0.00 0.00 0.00 0.00 0.00 0.00 0.00 0.00 0.00 0.00 0.00 0.00 0.00 0.00 0.00 0.00 0.00 0.00 0.00 0.00 0.00 0.00 0.00 0.00 0.00 0.00 0.00 0.00 0.00 0.00 0.00 0.00 0.00 0.00 0.00 0.00 0.00 0.00 0.00 0.00 0.00 0.00 0.00 0.00 0.00 0.00 0.00 0.00 0.00 0.00
0.00 0.00 0.00 0.00 0.00 0.00 0.00 0.00 0.00 0.00 0.00 0.00 0.00 0.00 0.00 0.00 0.00 0.00 0.00 0.00 0.00 0.00 0.00 0.00 0.00 0.00 0.00 0.00 0.00 0.00 0.00 0.00 0.00 0.00 0.00 0.00 0.00 0.00 0.00 0.00 0.00 0.00 0.00 0.00 0.00 0.00 0.00 0.00 0.00 0.00 0.00 0.00 0.00 0.00
0.00 0.00 0.00 0.00 0.00 0.00 0.00 0.00 0.00 0.00 0.00 0.00 0.00 0.00 0.00 0.00 0.00 0.00 0.00 0.00 0.00 0.00 0.00 0.00 0.00 0.00 0.00 0.00 0.00 0.00 0.00 0.00 0.00 0.00 0.00 0.00 0.00 0.00 0.00 0.00 0.00 0.00 0.00 0.00 0.00 0.00 0.00 0.00 0.00 0.00 0.00 0.00 0.00 0.00
0.00 0.00 0.00 0.00 0.00 0.00 0.00 0.00 0.00 0.00 0.00 0.00 0.00 0.00 0.00 0.00 0.00 0.00 0.00 0.00 0.00 0.00 0.00 0.00 0.00 0.00 0.00 0.00 0.00 0.00 0.00 0.00 0.00 0.00 0.00 0.00 0.00 0.00 0.00 0.00 0.00 0.00 0.00 0.00 0.00 0.00 0.00 0.00 0.00 0.00 0.00 0.00 0.00 0.00
0.00 0.00 0.00 0.00 0.00 0.00 0.00 0.00 0.00 0.00 0.00 0.00 0.00 0.00 0.00 0.00 0.00 0.00 0.00 0.00 0.00 0.00 0.00 0.00 0.00 0.00 0.00 0.00 0.00 0.00 0.00 0.00 0.00 0.00 0.00 0.00 0.00 0.00 0.00 0.00 0.00 0.00 0.00 0.00 0.00 0.00 0.00 0.00 0.00 0.00 0.00 0.00 0.00 0.00
0.00 0.00 0.00 0.00 0.00 0.00 0.00 0.00 0.00 0.00 0.00 0.00 0.00 0.00 0.00 0.00 0.00 0.00 0.00 0.00 0.00 0.00 0.00 0.00 0.00 0.00 0.00 0.00 0.00 0.00 0.00 0.00 0.00 0.00 0.00 0.00 0.00 0.00 0.00 0.00 0.00 0.00 0.00 0.00 0.00 0.00 0.00 0.00 0.00 0.00 0.00 0.00 0.00 0.00
0.00 0.00 0.00 0.00 0.00 0.00 0.00 0.00 0.00 0.00 0.00 0.00 0.00 0.00 0.00 0.00 0.00 0.00 0.00 0.00 0.00 0.00 0.00 0.00 0.00 0.00 0.00 0.00 0.00 0.00 0.00 0.00 0.00 0.00 0.00 0.00 0.00 0.00 0.00 0.00 0.00 0.00 0.00 0.00 0.00 0.00 0.00 0.00 0.00 0.00 0.00 0.00 0.00 0.00
0.00 0.00 0.00 0.00 0.00 0.00 0.00 0.00 0.00 0.00 0.00 0.00 0.00 0.00 0.00 0.00 0.00 0.00 0.00 0.00 0.00 0.00 0.00 0.00 0.00 0.00 0.00 0.00 0.00 0.00 0.00 0.00 0.00 0.00 0.00 0.00 0.00 0.00 0.00 0.00 0.00 0.00 0.00 0.00 0.00 0.00 0.00 0.00 0.00 0.00 0.00 0.00 0.00 0.00
0.00 0.00 0.00 0.00 0.00 0.00 0.00 0.00 0.00 0.00 0.00 0.00 0.00 0.00 0.00 0.00 0.00 0.00 0.00 0.00 0.00 0.00 0.00 0.00 0.00 0.00 0.00 0.00 0.00 0.00 0.00 0.00 0.00 0.00 0.00 0.00 0.00 0.00 0.00 0.00 0.00 0.00 0.00 0.00 0.00 0.00 0.00 0.00 0.00 0.00 0.00 0.00 0.00 0.00
0.00 0.00 0.00 0.00 0.00 0.00 0.00 0.00 0.00 0.00 0.00 0.00 0.00 0.00 0.00 0.00 0.00 0.00 0.00 0.00 0.00 0.00 0.00 0.00 0.00 0.00 0.00 0.00 0.00 0.00 0.00 0.00 0.00 0.00 0.00 0.00 0.00 0.00 0.00 0.00 0.00 0.00 0.00 0.00 0.00 0.00 0.00 0.00 0.00 0.00 0.00 0.00 0.00 0.00
0.00 0.00 0.00 0.00 0.00 0.00 0.00 0.00 0.00 0.00 0.00 0.00 0.00 0.00 0.00 0.00 0.00 0.00 0.00 0.00 0.00 0.00 0.00 0.00 0.00 0.00 0.00 0.00 0.00 0.00 0.00 0.00 0.00 0.00 0.00 0.00 0.00 0.00 0.00 0.00 0.00 0.00 0.00 0.00 0.00 0.00 0.00 0.00 0.00 0.00 0.00 0.00 0.00 0.00
0.00 0.00 0.00 0.00 0.00 0.00 0.00 0.00 0.00 0.00 0.00 0.00 0.00 0.00 0.00 0.00 0.00 0.00 0.00 0.00 0.00 0.00 0.00 0.00 0.00 0.00 0.00 0.00 0.00 0.00 0.00 0.00 0.00 0.00 0.00 0.00 0.00 0.00 0.00 0.00 0.00 0.00 0.00 0.00 0.00 0.00 0.00 0.00 0.00 0.00 0.00 0.00 0.00 0.00
0.00 0.00 0.00 0.00 0.00 0.00 0.00 0.00 0.00 0.00 0.00 0.00 0.00 0.00 0.00 0.00 0.00 0.00 0.00 0.00 0.00 0.00 0.00 0.00 0.00 0.00 0.00 0.00 0.00 0.00 0.00 0.00 0.00 0.00 0.00 0.00 0.00 0.00 0.00 0.00 0.00 0.00 0.00 0.00 0.00 0.00 0.00 0.00 0.00 0.00 0.00 0.00 0.00 0.00
MSLP
1022.24 1022.73 1023.28 1023.74 1023.73 1024.01 1024.17 1024.10 1023.88 1023.96 1024.37 1024.21 1023.85 1024.16 1024.48 1024.45 1024.58 1024.97 1025.37 1025.37 1025.66 1026.06 1025.46 1025.19 1025.07 1025.00 1024.98 1025.09 1025.26 1025.06 1024.87 1024.49 1024.12 1024.06 1023.74 1023.13 1022.56 1021.75 1021.22 1020.52 1019.95 1019.81 1019.83 1019.71 1019.51 1018.51 1015.99 1013.69 1013.83 1013.83 1013.07 1012.54 1012.54 1012.25
1021.96 1022.39 1023.18 1023.83 1023.98 1023.73 1023.77 1023.70 1023.79 1024.08 1024.16 1023.95 1023.79 1023.93 1024.10 1024.13 1024.40 1024.99 1025.57 1025.54 1025.59 1025.92 1025.52 1024.90 1024.37 1024.03 1024.21 1024.26 1024.78 1024.95 1024.94 1024.72 1024.41 1024.37 1024.13 1023.79 1023.07 1022.43 1021.47 1020.69 1019.52 1019.29 1018.39 1018.34 1017.89 1015.91 1014.38 1013.80 1013.23 1012.78 1012.86 1012.90 1012.49 1012.43
1022.24 1022.60 1023.18 1023.67 1023.59 1023.66 1023.40 1023.48 1023.74 1023.94 1023.85 1023.80 1023.75 1023.81 1023.88 1023.84 1023.89 1024.72 1025.31 1025.55 1025.65 1025.77 1025.42 1025.09 1023.96 1023.30 1023.43 1023.49 1023.59 1024.69 1024.59 1024.19 1024.20 1024.06 1024.33 1024.31 1023.72 1023.09 1022.20 1020.91 1019.78 1018.54 1017.84 1017.47 1016.90 1014.79 1014.46 1013.76 1012.83 1012.41 1012.59 1012.51 1012.06 1011.95
1022.20 1022.62 1023.09 1023.21 1023.35 1023.30 1023.30 1023.42 1023.50 1023.57 1023.57 1023.53 1023.52 1023.65 1023.60 1023.43 1023.60 1024.26 1025.11 1025.09 1025.43 1025.70 1025.69 1024.64 1023.74 1023.39 1022.73 1022.95 1023.36 1023.34 1023.41 1023.70 1023.80 1024.15 1024.16 1023.92 1023.64 1022.46 1021.42 1020.34 1019.10 1018.44 1017.80 1017.02 1015.54 1014.70 1014.30 1013.19 1012.72 1012.31 1012.13 1011.89 1011.63 1011.44
1022.18 1022.49 1022.72 1022.87 1023.10 1023.01 1023.21 1023.09 1023.21 1023.37 1023.35 1023.27 1023.37 1023.44 1023.34 1023.32 1023.39 1023.98 1024.47 1024.64 1024.46 1024.97 1024.98 1024.71 1023.88 1022.18 1021.99 1022.44 1022.70 1022.97 1023.30 1023.58 1023.93 1023.97 1023.47 1022.92 1022.16 1021.92 1020.51 1019.72 1016.52 1017.42 1016.60 1016.07 1014.25 1014.04 1013.72 1012.25 1011.80 1011.98 1012.12 1011.64 1011.34 1011.40
1021.99 1022.18 1022.34 1022.71 1022.73 1022.75 1022.75 1022.73 1023.15 1023.08 1022.89 1022.98 1023.16 1023.17 1023.09 1023.08 1023.75 1024.21 1024.50 1023.73 1023.89 1024.28 1024.48 1024.40 1023.54 1022.40 1021.60 1021.87 1022.14 1022.30 1022.45 1022.97 1023.08 1022.57 1022.09 1021.44 1020.62 1020.48 1019.02 1016.43 1014.12 1014.89 1014.62 1014.47 1013.44 1012.83 1012.61 1011.89 1011.39 1011.19 1011.45 1010.95 1010.74 1010.80
1021.70 1021.97 1022.20 1022.29 1022.51 1022.44 1022.50 1022.70 1022.86 1022.78 1022.59 1022.60 1022.73 1022.88 1022.85 1022.85 1023.75 1023.77 1023.67 1023.50 1023.56 1024.00 1024.40 1024.31 1023.56 1022.31 1021.78 1021.63 1021.64 1021.63 1021.65 1021.71 1021.56 1021.39 1020.63 1020.11 1019.19 1019.11 1017.13 1014.00 1012.51 1012.53 1012.75 1012.21 1012.05 1011.84 1012.07 1011.10 1010.73 1010.26 1010.47 1010.21 1010.23 1009.94
1021.58 1021.81 1021.92 1022.13 1022.18 1022.27 1022.33 1022.43 1022.51 1022.48 1022.46 1022.47 1022.45 1022.41 1022.41 1022.55 1022.95 1023.23 1022.82 1022.82 1023.40 1024.00 1023.77 1023.95 1023.77 1022.99 1021.48 1021.53 1021.58 1020.96 1021.18 1021.25 1020.55 1019.63 1018.82 1018.05 1017.51 1017.19 1014.19 1009.69 1010.84 1010.90 1011.06 1010.65 1009.70 1010.13 1009.65 1009.54 1009.76 1009.64 1009.82 1009.92 1009.97 1009.71
1021.61 1021.73 1021.78 1021.94 1021.97 1022.16 1022.21 1022.27 1022.34 1022.34 1022.29 1022.23 1022.11 1021.99 1022.61 1022.86 1022.97 1022.73 1022.40 1022.33 1023.01 1023.86 1023.86 1024.10 1023.81 1022.67 1021.45 1021.22 1021.07 1020.53 1019.85 1019.72 1018.32 1017.60 1016.88 1016.48 1014.82 1012.38 1008.90 1009.33 1008.56 1008.51 1008.86 1007.99 1008.15 1008.77 1008.97 1009.41 1009.02 1009.06 1009.34 1009.46 1009.46 1009.24
1021.48 1021.47 1021.68 1021.89 1021.92 1022.05 1022.13 1022.21 1022.15 1022.05 1022.17 1022.15 1022.43 1022.75 1023.13 1023.15 1022.72 1022.77 1022.89 1023.16 1023.42 1023.21 1023.33 1023.21 1022.68 1022.16 1021.73 1021.29 1020.54 1020.13 1018.87 1018.04 1016.90 1014.85 1014.16 1013.35 1010.98 1008.77 1007.52 1006.89 1006.85 1007.08 1007.11 1007.21 1007.61 1007.75 1007.84 1008.13 1008.24 1008.35 1008.55 1008.56 1008.74 1008.82
1021.45 1021.57 1021.73 1021.83 1021.86 1021.97 1022.01 1022.06 1022.01 1022.23 1022.32 1022.75 1023.18 1023.43 1023.33 1022.91 1023.17 1024.00 1024.46 1024.60 1024.31 1023.53 1022.72 1022.04 1021.80 1021.28 1020.49 1020.45 1019.85 1019.28 1017.98 1016.34 1014.76 1012.69 1012.41 1010.25 1007.90 1006.61 1006.09 1005.61 1005.03 1005.35 1005.82 1006.04 1006.06 1006.25 1006.73 1006.88 1007.34 1007.56 1007.81 1007.97 1008.41 1008.41
1021.48 1021.57 1021.63 1021.67 1021.66 1021.70 1021.73 1021.85 1021.88 1022.31 1022.51 1022.80 1023.32 1023.46 1023.57 1024.22 1024.91 1025.66 1025.73 1025.69 1024.91 1023.27 1021.77 1021.22 1020.72 1020.12 1019.50 1019.04 1018.56 1017.87 1016.77 1015.37 1013.17 1011.64 1010.83 1008.39 1006.59 1006.44 1006.31 1005.74 1005.01 1004.35 1004.18 1005.01 1005.46 1005.85 1006.17 1006.51 1006.93 1007.22 1007.46 1007.61 1007.99 1008.17
1021.21 1021.32 1021.37 1021.39 1021.45 1021.41 1021.45 1021.56 1021.56 1021.74 1022.25 1022.94 1023.29 1023.90 1024.66 1025.85 1026.49 1026.68 1026.31 1025.65 1024.42 1022.52 1021.67 1021.04 1020.67 1019.52 1018.47 1017.75 1017.31 1016.52 1014.97 1013.20 1011.63 1010.82 1009.21 1007.60 1007.46 1007.46 1007.16 1006.67 1005.45 1004.33 1003.83 1004.65 1005.26 1005.63 1006.08 1006.68 1006.98 1007.28 1007.63 1007.77 1007.99 1008.24
1020.99 1021.07 1021.13 1021.16 1021.11 1021.15 1021.17 1021.11 1021.31 1021.81 1022.50 1023.01 1023.65 1024.88 1025.63 1026.41 1026.34 1025.59 1024.97 1023.99 1022.64 1021.99 1021.44 1020.97 1020.28 1019.36 1017.79 1017.09 1015.70 1014.45 1012.76 1011.61 1010.22 1009.55 1008.74 1008.59 1008.74 1008.40 1007.92 1007.25 1006.44 1005.82 1005.33 1005.27 1005.62 1006.12 1006.70 1007.35 1007.78 1007.78 1008.04 1008.19 1008.37 1008.79
1020.72 1020.74 1020.72 1020.72 1020.76 1020.77 1020.75 1020.88 1021.09 1021.80 1022.32 1022.84 1023.93 1025.05 1025.53 1025.00 1025.17 1024.85 1024.51 1023.69 1022.25 1021.58 1021.35 1020.87 1019.89 1018.85 1017.57 1016.11 1014.01 1013.03 1011.69 1010.50 1009.86 1009.62 1009.56 1009.43 1009.23 1008.95 1008.56 1008.01 1007.56 1007.20 1006.91 1006.81 1006.79 1007.17 1007.63 1008.01 1008.21 1008.64 1008.79 1008.74 1008.88 1009.26
1020.28 1020.37 1020.43 1020.33 1020.33 1020.49 1020.57 1020.72 1021.49 1021.95 1022.24 1022.90 1023.81 1024.55 1024.96 1025.52 1024.98 1024.74 1024.04 1023.16 1022.03 1021.56 1021.06 1020.62 1019.96 1018.55 1016.54 1014.41 1012.53 1011.98 1011.58 1011.58 1011.61 1011.33 1010.57 1010.06 1009.67 1009.42 1009.15 1008.97 1008.59 1008.33 1008.14 1007.99 1007.96 1008.09 1008.31 1008.58 1008.96 1009.46 1009.58 1009.65 1009.88 1010.09
1019.95 1020.24 1020.14 1020.26 1020.30 1020.27 1020.44 1021.06 1021.70 1022.14 1022.67 1023.36 1023.73 1023.73 1024.11 1024.41 1024.33 1023.94 1023.41 1022.66 1021.72 1021.80 1021.64 1020.76 1019.98 1017.88 1016.47 1014.32 1012.97 1012.98 1013.53 1013.55 1012.82 1011.86 1010.96 1010.49 1010.18 1009.89 1009.54 1009.51 1009.23 1009.18 1009.19 1009.11 1009.02 1009.14 1009.33 1009.58 1009.78 1010.06 1010.42 1011.05 1011.04 1011.35
1019.89 1019.97 1019.89 1019.83 1019.89 1020.25 1020.87 1021.13 1021.81 1022.46 1023.19 1023.42 1023.83 1023.27 1023.55 1023.29 1023.29 1023.36 1022.65 1022.09 1021.81 1021.40 1021.10 1020.57 1019.70 1018.53 1017.41 1015.50 1014.58 1014.47 1014.31 1013.82 1013.01 1012.01 1011.23 1010.74 1010.42 1010.22 1010.00 1010.02 1009.97 1010.00 1010.05 1010.08 1010.06 1010.12 1010.23 1010.45 1010.73 1011.29 1011.61 1011.96 1012.13 1012.51
1019.51 1019.59 1019.55 1019.76 1020.15 1020.87 1021.74 1022.20 1022.43 1022.99 1023.33 1023.55 1023.19 1023.09 1022.97 1022.64 1022.21 1021.95 1021.90 1021.33 1021.00 1020.82 1020.81 1020.43 1019.73 1018.43 1017.25 1016.37 1015.98 1015.32 1014.81 1014.09 1013.10 1012.10 1011.61 1011.14 1010.83 1010.63 1010.55 1010.71 1010.67 1010.72 1010.78 1010.76 1010.78 1011.10 1011.38 1011.57 1011.77 1012.19 1012.56 1012.75 1013.02 1013.49
1018.89 1019.13 1019.35 1019.71 1020.17 1021.60 1022.89 1023.64 1023.23 1023.43 1023.68 1023.21 1022.97 1022.80 1022.57 1022.23 1021.90 1021.76 1021.58 1021.37 1021.21 1021.01 1020.69 1020.16 1018.98 1018.36 1018.09 1017.37 1016.84 1016.05 1015.10 1014.16 1013.12 1012.27 1011.97 1011.60 1011.32 1011.03 1011.09 1011.34 1011.35 1011.41 1011.43 1011.58 1011.81 1011.97 1012.17 1012.45 1012.85 1013.24 1013.50 1013.71 1013.88 1014.56
1019.33 1019.86 1020.02 1020.23 1021.50 1022.25 1023.57 1024.25 1024.14 1023.95 1023.80 1023.59 1022.87 1022.52 1022.12 1021.90 1021.85 1021.71 1021.60 1021.45 1021.46 1021.37 1020.73 1019.88 1019.36 1018.75 1018.16 1017.55 1016.73 1015.89 1014.90 1014.01 1013.09 1012.48 1012.21 1012.14 1012.02 1011.73 1011.90 1012.12 1012.13 1012.22 1012.32 1012.59 1012.78 1013.19 1013.41 1013.88 1014.39 1014.59 1014.71 1015.09 1015.53 1016.00
1019.87 1020.09 1020.79 1021.26 1022.42 1023.47 1024.27 1024.92 1025.14 1024.82 1024.80 1024.01 1023.36 1022.65 1022.24 1022.09 1021.94 1021.72 1021.67 1021.93 1021.78 1021.32 1020.95 1020.47 1019.69 1019.00 1018.10 1017.17 1016.40 1015.77 1015.01 1014.23 1013.58 1013.01 1012.78 1012.74 1012.80 1012.73 1012.83 1012.93 1013.02 1013.25 1013.43 1013.71 1013.95 1014.31 1014.74 1015.11 1015.43 1015.69 1015.89 1016.53 1016.96 1017.46
1020.20 1020.97 1022.18 1022.81 1023.75 1024.82 1025.88 1025.93 1026.13 1025.92 1025.71 1024.55 1023.72 1023.01 1022.40 1022.18 1021.88 1021.76 1022.03 1022.05 1021.77 1021.48 1021.09 1020.50 1019.65 1018.73 1017.93 1017.16 1016.60 1016.00 1015.33 1014.78 1014.37 1014.00 1013.81 1013.76 1013.74 1013.73 1013.77 1013.77 1013.79 1014.01 1014.50 1015.11 1015.24 1015.53 1015.94 1016.43 1016.83 1017.08 1017.54 1017.97 1018.32 1018.91
1021.06 1022.41 1023.44 1024.35 1025.22 1026.25 1026.59 1027.15 1027.13 1026.63 1026.11 1025.30 1024.36 1023.26 1022.53 1022.23 1022.05 1022.17 1022.41 1022.22 1021.92 1021.50 1021.16 1020.58 1019.76 1018.65 1017.86 1017.39 1017.07 1016.65 1016.16 1015.60 1015.31 1015.01 1014.87 1014.69 1014.64 1014.97 1014.94 1015.01 1015.15 1015.42 1015.72 1016.15 1016.53 1016.95 1017.33 1017.70 1018.16 1018.52 1018.89 1019.26 1019.87 1020.33
1022.24 1024.59 1025.15 1025.81 1026.98 1027.13 1027.47 1027.45 1027.66 1027.15 1026.42 1025.36 1024.36 1023.27 1022.73 1022.44 1022.49 1022.76 1022.69 1022.51 1022.18 1021.81 1021.51 1020.96 1020.27 1019.54 1018.90 1018.38 1017.88 1017.45 1017.03 1016.71 1016.35 1016.16 1016.13 1015.78 1015.76 1015.86 1016.07 1016.32 1016.63 1016.95 1017.02 1017.08 1017.72 1018.19 1018.75 1019.12 1019.56 1020.03 1020.44 1020.81 1021.35 1021.97
1023.12 1024.83 1025.64 1025.55 1026.53 1026.91 1027.07 1027.30 1027.01 1026.60 1026.07 1025.09 1024.03 1023.26 1022.82 1022.93 1023.06 1023.12 1023.06 1023.03 1022.70 1022.22 1021.97 1021.54 1021.02 1020.18 1019.55 1019.22 1018.78 1018.35 1018.04 1017.60 1017.19 1017.08 1017.32 1016.99 1016.67 1016.56 1016.87 1017.19 1017.65 1018.37 1018.38 1018.34 1018.50 1019.17 1019.89 1020.40 1020.93 1021.37 1021.82 1022.33 1022.80 1023.24
1024.11 1025.14 1025.38 1024.99 1025.54 1026.29 1026.82 1026.70 1026.49 1026.25 1025.68 1025.03 1024.11 1023.61 1023.37 1023.53 1023.59 1023.53 1023.37 1023.36 1023.17 1022.71 1022.33 1021.86 1021.31 1020.74 1020.23 1019.73 1019.29 1018.99 1018.64 1018.25 1018.01 1018.15 1018.21 1017.98 1017.75 1017.69 1017.67 1018.13 1018.76 1019.45 1019.45 1019.42 1019.73 1020.23 1020.87 1021.67 1022.32 1022.89 1023.37 1023.88 1024.24 1024.50
1025.11 1025.37 1025.77 1026.14 1026.57 1026.95 1027.37 1027.37 1026.95 1026.10 1025.35 1024.65 1024.27 1024.09 1024.06 1024.14 1024.31 1024.20 1023.88 1023.64 1023.45 1022.95 1022.35 1021.74 1021.29 1020.89 1020.44 1020.11 1019.84 1019.47 1019.17 1018.92 1018.78 1018.59 1018.30 1018.61 1019.04 1019.15 1019.17 1019.38 1019.66 1019.94 1020.33 1020.66 1021.00 1021.51 1022.01 1022.62 1023.28 1023.97 1024.55 1025.11 1025.65 1025.85
1025.62 1025.68 1025.97 1027.02 1027.44 1027.74 1027.68 1027.51 1026.88 1025.98 1025.30 1024.88 1024.64 1024.41 1024.52 1024.64 1024.92 1024.83 1024.43 1024.16 1023.69 1023.16 1022.61 1022.04 1021.54 1021.08 1020.62 1020.32 1020.16 1019.95 1019.68 1019.37 1019.07 1018.99 1019.19 1020.03 1020.39 1021.05 1020.87 1020.75 1020.87 1021.09 1021.40 1021.81 1022.48 1022.86 1023.35 1023.85 1024.44 1024.95 1025.50 1025.95 1026.61 1026.85
1026.22 1026.31 1026.94 1027.58 1028.13 1028.16 1027.87 1027.45 1027.06 1026.34 1025.66 1025.13 1024.84 1024.83 1024.83 1024.99 1025.21 1025.24 1024.95 1024.59 1024.23 1023.82 1023.39 1022.97 1022.53 1021.99 1021.55 1021.07 1020.76 1020.50 1020.27 1020.00 1019.69 1019.70 1019.82 1020.64 1021.40 1021.80 1021.79 1021.83 1021.95 1022.19 1022.48 1022.81 1023.40 1024.07 1024.60 1025.04 1025.56 1026.06 1026.56 1027.05 1027.45 1027.89
1026.73 1027.08 1027.63 1028.14 1028.39 1028.22 1028.12 1027.80 1027.28 1026.50 1026.14 1025.70 1025.39 1025.24 1025.10 1025.19 1025.26 1025.41 1025.37 1025.23 1024.93 1024.44 1023.90 1023.55 1023.18 1022.87 1022.45 1022.01 1021.68 1021.27 1020.97 1020.85 1020.58 1020.61 1020.87 1021.39 1021.87 1022.26 1022.58 1022.84 1023.07 1023.30 1023.65 1024.08 1024.61 1025.14 1025.68 1026.22 1026.75 1027.34 1027.88 1028.31 1028.66 1028.84
1027.79 1028.34 1028.46 1029.11 1029.09 1028.68 1028.46 1028.40 1028.17 1027.44 1026.91 1026.43 1026.26 1026.01 1025.77 1025.62 1025.73 1025.85 1026.00 1025.80 1025.46 1025.19 1024.78 1024.53 1024.06 1023.55 1023.13 1022.67 1022.21 1021.77 1021.54 1021.53 1021.49 1021.66 1021.94 1022.37 1022.81 1023.23 1023.55 1023.86 1024.12 1024.31 1024.62 1025.09 1025.62 1026.16 1026.66 1027.25 1027.95 1028.46 1028.93 1029.35 1029.68 1029.94
1028.96 1029.02 1029.27 1029.53 1029.49 1029.47 1029.40 1029.14 1029.06 1028.51 1027.87 1027.74 1027.37 1027.06 1026.86 1026.80 1026.63 1026.59 1026.33 1026.31 1026.22 1025.92 1025.53 1025.05 1024.51 1024.01 1023.55 1023.14 1022.76 1022.41 1022.27 1022.19 1022.12 1022.15 1022.48 1022.90 1023.32 1023.78 1024.26 1024.62 1024.95 1025.25 1025.62 1026.17 1026.72 1027.13 1027.62 1028.16 1028.82 1029.41 1029.86 1030.21 1030.49 1030.60
Thickness
5379 5375 5370 5364 5362 5359 5358 5359 5361 5360 5353 5354 5358 5352 5347 5347 5346 5344 5339 5339 5337 5330 5336 5340 5343 5340 5339 5337 5333 5340 5343 5344 5350 5346 5362 5370 5370 5375 5383 5394 5403 5407 5398 5397 5415 5418 5437 5473 5470 5466 5474 5474 5480 5484
5371 5367 5357 5350 5348 5351 5351 5352 5350 5346 5344 5346 5347 5344 5340 5339 5335 5331 5327 5328 5326 5325 5327 5332 5335 5339 5338 5334 5327 5328 5332 5333 5336 5345 5342 5350 5367 5352 5365 5373 5393 5395 5407 5395 5405 5427 5449 5453 5463 5465 5462 5461 5468 5467
5355 5351 5347 5340 5341 5340 5344 5342 5338 5335 5336 5335 5336 5334 5332 5331 5327 5320 5316 5315 5313 5314 5317 5318 5326 5332 5327 5325 5327 5319 5317 5323 5325 5323 5319 5320 5327 5341 5345 5362 5380 5394 5397 5398 5401 5438 5440 5450 5459 5461 5454 5456 5467 5468
5346 5341 5335 5334 5332 5332 5332 5330 5329 5328 5327 5326 5325 5321 5320 5320 5315 5309 5304 5302 5297 5296 5297 5303 5311 5311 5316 5314 5311 5315 5316 5312 5311 5305 5295 5301 5314 5329 5325 5350 5365 5382 5383 5382 5397 5416 5416 5433 5439 5443 5448 5451 5455 5461
5334 5329 5327 5326 5323 5324 5321 5322 5320 5317 5316 5315 5311 5308 5307 5304 5300 5296 5290 5286 5286 5281 5279 5284 5292 5306 5306 5299 5299 5297 5296 5293 5287 5291 5300 5306 5315 5317 5329 5330 5374 5373 5376 5373 5394 5407 5399 5427 5431 5432 5433 5442 5454 5453
5323 5322 5321 5316 5316 5314 5313 5314 5307 5305 5306 5302 5297 5293 5291 5287 5279 5274 5270 5275 5271 5266 5264 5257 5274 5286 5295 5290 5284 5282 5281 5275 5277 5285 5293 5299 5316 5306 5315 5344 5393 5380 5378 5375 5384 5396 5396 5411 5425 5431 5429 5441 5448 5451
5316 5314 5310 5309 5306 5305 5304 5299 5295 5293 5292 5288 5282 5277 5273 5269 5262 5257 5255 5258 5256 5250 5245 5241 5249 5277 5279 5274 5267 5269 5264 5266 5269 5276 5285 5298 5310 5300 5313 5344 5391 5386 5369 5371 5374 5382 5380 5402 5414 5421 5420 5431 5437 5447
5306 5303 5301 5297 5296 5293 5290 5286 5282 5279 5275 5270 5266 5263 5260 5256 5252 5249 5249 5247 5244 5239 5242 5243 5239 5246 5263 5249 5245 5257 5250 5248 5263 5273 5283 5299 5305 5297 5321 5382 5372 5372 5369 5373 5386 5385 5395 5406 5404 5414 5417 5422 5431 5442
5294 5291 5290 5287 5284 5279 5275 5271 5266 5262 5259 5255 5253 5252 5248 5244 5243 5242 5244 5245 5240 5235 5224 5226 5225 5222 5248 5246 5247 5249 5262 5267 5276 5283 5293 5297 5313 5331 5374 5371 5379 5383 5379 5390 5390 5389 5394 5389 5407 5411 5411 5418 5428 5440
5284 5282 5278 5273 5269 5264 5259 5254 5251 5250 5246 5245 5242 5239 5237 5235 5237 5238 5234 5225 5235 5236 5228 5236 5231 5230 5245 5247 5251 5250 5255 5264 5283 5307 5310 5318 5342 5371 5384 5391 5393 5389 5388 5390 5389 5390 5394 5397 5406 5409 5411 5417 5428 5440
5271 5267 5262 5257 5253 5249 5246 5243 5241 5239 5238 5234 5231 5224 5230 5232 5229 5214 5201 5221 5202 5214 5231 5246 5242 5248 5256 5250 5256 5267 5262 5275 5290 5322 5323 5343 5377 5395 5396 5398 5405 5405 5400 5399 5402 5406 5406 5407 5410 5412 5412 5420 5429 5441
5256 5252 5248 5244 5242 5240 5238 5236 5235 5233 5232 5228 5224 5224 5223 5213 5202 5201 5176 5189 5208 5227 5244 5250 5253 5257 5262 5264 5266 5274 5285 5300 5308 5324 5344 5371 5389 5382 5378 5385 5392 5400 5415 5409 5404 5408 5407 5408 5409 5411 5416 5425 5433 5440
5245 5241 5238 5236 5235 5234 5234 5233 5233 5232 5228 5223 5222 5217 5212 5191 5189 5186 5167 5184 5183 5221 5230 5233 5244 5259 5271 5274 5280 5286 5301 5313 5328 5340 5365 5377 5371 5366 5367 5373 5387 5397 5413 5408 5405 5407 5406 5406 5408 5411 5418 5426 5432 5437
5235 5233 5232 5231 5231 5232 5232 5232 5230 5226 5221 5218 5216 5206 5186 5171 5192 5199 5205 5211 5226 5231 5238 5251 5254 5260 5274 5281 5287 5309 5322 5330 5354 5356 5368 5359 5353 5358 5363 5370 5381 5388 5397 5401 5402 5402 5402 5402 5404 5410 5417 5423 5429 5433
5229 5229 5230 5230 5231 5231 5231 5230 5228 5223 5220 5218 5203 5194 5189 5202 5185 5192 5199 5213 5234 5238 5239 5243 5250 5261 5276 5289 5311 5321 5334 5350 5356 5360 5351 5352 5351 5353 5359 5366 5371 5377 5382 5387 5391 5391 5392 5396 5403 5406 5412 5420 5425 5427
5228 5228 5230 5231 5231 5230 5229 5228 5222 5218 5217 5211 5198 5202 5196 5187 5192 5188 5201 5226 5233 5235 5243 5249 5252 5263 5287 5313 5335 5342 5342 5341 5337 5334 5341 5344 5350 5351 5352 5356 5361 5366 5372 5378 5384 5389 5392 5397 5400 5400 5405 5410 5415 5420
5227 5226 5229 5229 5229 5230 5228 5223 5217 5212 5203 5197 5202 5202 5193 5189 5197 5201 5206 5218 5226 5231 5231 5241 5250 5284 5287 5312 5332 5322 5315 5310 5315 5323 5335 5339 5341 5343 5345 5349 5355 5359 5361 5367 5375 5381 5385 5388 5394 5399 5401 5399 5406 5409
5224 5228 5228 5229 5229 5226 5221 5217 5210 5204 5195 5179 5185 5192 5193 5194 5196 5195 5208 5215 5228 5233 5240 5248 5255 5261 5281 5302 5312 5303 5299 5302 5311 5322 5328 5332 5335 5336 5340 5342 5345 5349 5353 5359 5367 5373 5380 5385 5389 5390 5393 5395 5398 5399
5225 5227 5228 5227 5224 5219 5209 5206 5202 5201 5192 5180 5185 5184 5188 5199 5202 5206 5217 5226 5237 5243 5246 5240 5252 5266 5287 5288 5288 5290 5294 5300 5307 5320 5324 5328 5330 5333 5335 5337 5340 5345 5352 5359 5367 5371 5374 5378 5382 5384 5386 5390 5391 5391
5226 5226 5226 5223 5220 5207 5192 5185 5189 5195 5181 5182 5186 5184 5193 5195 5198 5207 5222 5231 5234 5242 5244 5246 5263 5269 5268 5274 5278 5284 5293 5300 5311 5320 5321 5324 5328 5333 5336 5337 5341 5347 5354 5359 5364 5368 5372 5374 5376 5378 5380 5382 5385 5382
5222 5219 5219 5218 5208 5200 5186 5173 5187 5177 5177 5182 5183 5191 5192 5192 5203 5217 5227 5229 5225 5225 5231 5245 5252 5261 5267 5272 5280 5288 5295 5302 5312 5317 5319 5321 5325 5332 5334 5336 5342 5347 5351 5354 5358 5361 5363 5363 5364 5367 5370 5369 5369 5369
5216 5215 5211 5208 5197 5192 5183 5174 5171 5169 5165 5168 5179 5191 5202 5197 5205 5216 5220 5215 5216 5230 5236 5241 5252 5258 5267 5277 5284 5288 5294 5301 5306 5312 5316 5320 5323 5328 5332 5336 5341 5344 5347 5349 5352 5353 5354 5356 5357 5358 5360 5358 5357 5356
5210 5207 5198 5195 5198 5177 5173 5159 5165 5151 5168 5168 5175 5189 5201 5202 5210 5217 5214 5216 5227 5230 5237 5243 5252 5260 5270 5279 5283 5286 5292 5298 5301 5306 5311 5314 5318 5322 5327 5332 5338 5341 5341 5339 5343 5345 5345 5345 5345 5346 5346 5345 5345 5344
5202 5191 5192 5186 5169 5170 5147 5147 5139 5144 5142 5163 5174 5193 5201 5202 5211 5211 5209 5218 5228 5233 5236 5242 5252 5265 5274 5278 5280 5283 5287 5293 5297 5301 5305 5311 5315 5316 5321 5324 5327 5328 5331 5332 5332 5333 5334 5336 5335 5335 5335 5335 5334 5334
5202 5184 5176 5166 5135 5155 5150 5141 5130 5145 5156 5154 5181 5194 5202 5206 5209 5205 5214 5220 5223 5230 5233 5240 5248 5256 5264 5269 5274 5278 5282 5285 5292 5296 5297 5306 5310 5313 5315 5315 5316 5318 5322 5326 5324 5323 5323 5324 5324 5323 5324 5325 5323 5322
5193 5168 5167 5160 5146 5162 5153 5158 5141 5149 5155 5172 5189 5194 5198 5202 5204 5210 5216 5214 5219 5227 5229 5235 5242 5251 5259 5262 5265 5271 5275 5279 5287 5292 5291 5297 5305 5311 5313 5315 5314 5310 5313 5317 5320 5318 5316 5316 5316 5316 5317 5318 5318 5314
5178 5164 5158 5178 5175 5168 5163 5162 5164 5161 5163 5172 5187 5194 5200 5203 5204 5209 5210 5211 5215 5221 5226 5233 5240 5247 5253 5258 5262 5267 5271 5276 5281 5283 5286 5292 5297 5302 5307 5309 5306 5304 5307 5311 5312 5311 5309 5307 5305 5304 5303 5302 5303 5305
5153 5154 5163 5150 5148 5146 5144 5141 5142 5155 5170 5179 5187 5189 5195 5197 5205 5199 5205 5209 5212 5218 5226 5234 5240 5246 5251 5255 5258 5264 5269 5273 5276 5281 5288 5290 5290 5293 5298 5299 5301 5302 5302 5303 5303 5303 5302 5301 5299 5297 5295 5294 5292 5293
5154 5160 5159 5139 5135 5134 5135 5145 5149 5169 5175 5176 5182 5189 5186 5188 5188 5192 5200 5204 5211 5218 5225 5231 5238 5243 5250 5254 5257 5260 5265 5272 5279 5283 5283 5283 5285 5281 5286 5291 5294 5295 5296 5296 5294 5293 5291 5291 5289 5288 5287 5286 5283 5283
5154 5151 5145 5126 5143 5151 5141 5145 5145 5153 5166 5174 5180 5181 5184 5186 5186 5189 5194 5200 5206 5213 5218 5223 5229 5235 5242 5248 5254 5258 5261 5266 5273 5279 5281 5278 5275 5276 5281 5284 5287 5288 5289 5289 5287 5284 5283 5281 5280 5278 5277 5276 5275 5273
5151 5144 5140 5138 5143 5136 5136 5141 5144 5161 5162 5166 5172 5179 5184 5185 5187 5187 5191 5194 5200 5207 5214 5218 5222 5227 5233 5239 5244 5252 5257 5259 5264 5268 5269 5268 5269 5272 5274 5276 5277 5278 5278 5277 5276 5274 5272 5270 5269 5266 5264 5263 5263 5261
5143 5132 5139 5145 5140 5134 5133 5133 5136 5144 5153 5166 5166 5168 5176 5183 5188 5185 5185 5189 5195 5200 5206 5209 5214 5221 5226 5232 5238 5245 5250 5252 5255 5257 5259 5260 5260 5262 5264 5265 5267 5268 5268 5267 5265 5264 5262 5260 5257 5255 5252 5249 5247 5246
5117 5117 5116 5125 5133 5138 5129 5130 5131 5131 5140 5143 5151 5158 5160 5168 5180 5176 5180 5183 5187 5191 5197 5202 5209 5215 5220 5226 5231 5237 5241 5244 5248 5250 5251 5251 5252 5253 5254 5255 5256 5256 5256 5254 5252 5252 5250 5248 5245 5242 5240 5238 5234 5234